Location: Martina Olba
(44.5000°N, 8.6000°E)
Time: 21:11:05
(UTC+00:00)

Daily predictions for brighter satellites

Satellite Brightness Start Highest point End
(mag) Time Altitude Azimuth Time Altitude Azimuth Time Altitude Azimuth
Geosat 4.1 19:38:45 10° SSE 19:43:46 83° ENE 19:48:50 10° NNW
Cosmos 2322 Rocket 2.5 19:40:10 10° SSW 19:45:46 77° WNW 19:51:25 10° NNE
BREEZE M DEB (TANK) 3.2 19:44:51 10° WNW 19:48:32 40° N 19:50:35 10° E
Meteor 1-21 Rocket 4.4 19:43:27 10° S 19:49:16 64° E 19:55:08 10° NNE
Cosmos 2237 4.2 19:45:36 10° SSW 19:51:17 68° ESE 19:57:00 10° NNE
Cosmos 1758 Rocket 4.1 19:49:36 10° SSE 19:53:50 43° E 19:58:06 10° NNE
Cosmos 1626 Rocket 4.0 19:50:24 10° SSW 19:54:50 69° W 19:59:19 10° N
Cosmos 1455 2.4 19:52:30 10° N 19:56:18 56° E 20:00:05 10° SSE
USA 245 4.1 19:55:07 10° SE 19:58:11 34° ENE 20:01:58 10° N
Cosmos 1328 4.5 19:55:35 10° SSE 19:59:13 36° E 20:02:52 10° NNE
COSMOS 2428 3.6 20:03:56 10° SSE 20:08:43 29° ESE 20:13:30 10° NE
Cosmos 1703 3.4 20:06:16 10° S 20:10:03 55° E 20:13:52 10° NNE
Cosmos 1844 4.0 20:05:01 10° NNW 20:10:45 62° ENE 20:16:01 12° SE
Cosmos 2322 3.9 20:05:51 10° S 20:11:20 51° ESE 20:16:52 10° NE
Cosmos 1745 Rocket 4.0 20:05:27 10° S 20:11:39 88° E 20:17:57 10° N
MetOp-B 4.2 20:07:25 10° SSE 20:12:45 77° ENE 20:18:08 10° N
SL-08 ROCKET BODY 4.5 20:07:36 10° S 20:13:33 89° WNW 20:19:38 10° N
Cosmos 2263 Rocket 4.3 20:11:45 10° NW 20:15:57 22° W 20:20:08 10° SSW
Cosmos 1953 Rocket 4.1 20:13:06 10° SSE 20:17:08 39° E 20:21:10 10° NNE
Cosmos 773 Rocket 4.3 20:12:31 10° S 20:17:36 50° ESE 20:22:42 10° NNE
Cosmos 2237 Rocket 3.9 20:17:54 11° ESE 20:20:01 14° E 20:22:41 10° ENE
Cosmos 2219 Rocket 2.6 20:15:19 10° S 20:20:27 39° ESE 20:25:38 10° NE
ERS-1 Rocket 3.7 20:16:48 12° SE 20:20:59 39° ENE 20:25:38 10° N
ATLAS CENTAUR R/B 2.5 20:18:39 10° NNW 20:21:51 27° NE 20:24:46 11° ESE
Cosmos 1818 3.9 20:16:40 10° SW 20:22:05 74° NW 20:27:34 10° NNE
Cosmos 2360 Rocket 2.5 20:17:20 10° SSW 20:22:58 74° WNW 20:28:40 10° NNE
Cosmos 2333 4.2 20:17:39 10° S 20:23:10 61° ESE 20:28:47 10° NNE
USA 215 3.6 20:18:18 10° ENE 20:24:28 42° SE 20:30:34 10° SSW
SPOT 5 3.7 20:23:12 14° SE 20:27:05 37° ENE 20:31:29 10° N
Landsat 7 3.8 20:26:08 12° SSE 20:30:30 80° ENE 20:35:18 10° N
Atlas Centaur 2 3.7 20:26:51 10° SW 20:31:15 22° S 20:34:39 15° SE
Cosmos 1825 Rocket 3.6 20:27:40 10° S 20:32:06 89° E 20:36:36 10° N
Cosmos 2333 Rocket 2.3 20:28:43 10° S 20:34:14 55° ESE 20:39:49 10° NNE
GEOS 3 Rocket 3.6 20:34:52 10° NE 20:40:17 75° SE 20:45:40 10° SSW
Spot 2 Rocket 3.7 20:39:25 12° S 20:44:08 73° WSW 20:49:16 10° NNW
IGS 5A 3.7 20:42:27 14° S 20:45:59 68° W 20:50:09 10° NNW
Cosmos 1315 Rocket 3.3 20:43:30 10° N 20:47:28 46° ENE 20:49:47 22° SE
OAO 2 Rocket 4.3 20:46:45 10° WSW 20:51:18 29° S 20:53:38 21° SE
ATLAS 5 CENTAUR R/B 2.8 20:47:49 10° WSW 20:51:48 44° NW 20:56:17 10° NNE
Cosmos 1892 4.4 20:51:28 17° ESE 20:52:13 18° E 20:54:48 10° NE
CARTOSAT-1 3.6 20:49:41 21° SSE 20:52:30 70° ENE 20:56:49 10° N
USA 81 4.0 20:48:48 15° S 20:53:11 69° E 20:58:27 10° N
Cosmos 2278 Rocket 3.1 20:49:44 10° NNW 20:55:01 38° NE 20:58:50 17° ESE
Cosmos 1709 Rocket 4.2 20:50:20 10° SSW 20:56:37 77° W 21:03:01 10° N
USA 267 4.1 20:50:33 10° E 20:56:43 46° NNE 21:02:54 10° NW
Cosmos 1844 Rocket 3.4 20:51:51 10° NW 20:57:12 48° WSW 21:01:37 15° S
Meteor 1-11 4.3 20:57:25 10° SSW 21:03:02 82° W 21:08:47 10° N
SPOT 1/Viking Rocket 3.9 21:00:43 16° S 21:04:50 62° WSW 21:09:58 10° NNW
SL-16 R/B 4.2 21:04:44 11° E 21:05:10 11° E 21:06:36 10° E
Cosmos-2242 4.3 21:04:09 10° NNW 21:08:11 38° W 21:11:57 11° SSW
Cosmos 1400 Rocket 4.2 21:05:20 10° NNW 21:08:55 33° W 21:12:01 12° SSW
BREEZE-M R/B 4.3 20:57:49 10° WNW 21:09:19 75° SW 21:12:48 24° SE
Cosmos 2184 Rocket 4.2 21:08:51 21° SSE 21:12:54 57° E 21:19:04 10° NNE
Cosmos 2221 2.9 21:09:06 10° N 21:13:23 51° ENE 21:15:14 30° SE
Resurs 01 Rocket 4.1 21:11:54 10° SW 21:14:35 16° W 21:17:15 10° NW
Lacrosse 5 rocket 4.2 21:12:41 10° NNW 21:14:57 14° N 21:17:09 10° NNE
In-Cosmos 22 Rocket 4.5 21:14:18 26° SSE 21:16:51 45° E 21:21:54 10° NNE
Terra 1.8 21:14:58 27° SSE 21:17:33 80° ENE 21:22:19 10° N
Cosmos 923 Rocket 4.3 21:16:24 25° SSE 21:19:07 49° ESE 21:24:12 10° NNE
TSX-5 4.1 21:25:06 10° NNW 21:28:36 54° ENE 21:30:04 34° ESE
Cosmos 2058 3.2 21:27:38 36° SE 21:28:48 48° E 21:32:48 10° NNE
NOSS 3-4 (A) 4.3 21:23:47 10° NNW 21:30:35 55° NE 21:36:03 19° ESE
NOSS 3-4 (C) 4.3 21:23:54 10° NNW 21:30:42 54° NE 21:36:11 19° ESE
NOSS 3-3 (A) 4.4 21:33:09 10° SW 21:38:56 63° NW 21:45:32 10° NNE
NOSS 3-3 (C) 4.4 21:33:14 10° SW 21:39:02 64° NW 21:45:39 10° NE
Cosmos 1825 3.5 21:39:57 25° E 21:39:59 25° E 21:43:09 10° NNE
Cosmos 1980 3.6 21:41:49 25° S 21:45:11 72° ESE 21:50:50 10° NNE
JB-3 4.1 21:43:04 10° NNE 21:46:56 89° W 21:48:04 44° SSW
Meteor 2-17 Rocket 4.3 21:43:29 26° S 21:47:04 86° E 21:53:10 10° N
Aureole 2 Rocket 4.4 21:46:59 10° NNE 21:48:43 15° ENE 21:48:50 15° ENE
Cosmos 1076 Rocket 3.4 21:47:32 44° SSE 21:48:47 72° E 21:53:04 10° NNE
Nadezhda 3 Rocket 4.0 21:45:57 10° N 21:52:20 72° E 21:55:18 33° SSE
COSMOS 2428 3.7 21:47:19 10° SW 21:52:44 46° WNW 21:58:12 10° NNE
Cosmos 2154 Rocket 3.9 21:49:47 31° S 21:52:56 74° E 21:59:08 10° NNE
Cosmos 2084 4.2 21:50:51 10° NW 21:55:02 41° WSW 21:56:03 35° SSW
Cosmos 2151 3.7 21:55:43 35° ESE 21:56:11 36° E 22:00:08 10° NNE
Cosmos 2341 Rocket 4.5 21:55:15 32° SE 21:57:34 45° E 22:03:26 10° NNE
ATLAS 2AS CENTAUR R/B 3.0 21:51:02 10° NW 21:58:38 70° NE 22:02:38 28° SE
DELTA 2 R/B (1) 3.7 21:53:21 10° WSW 21:58:41 47° S 22:01:15 28° ESE
Cosmos 2074 Rocket 4.3 21:54:31 20° SSW 21:58:57 64° W 22:05:09 10° N
Thor Agena Rocket 3.7 21:55:05 10° NNE 22:00:05 54° E 22:01:29 41° SSE
ATLAS CENTAUR R/B 2.4 21:57:32 10° WNW 22:00:40 27° WSW 22:00:56 27° SW
Cosmos 1869 4.1 21:57:32 10° NNW 22:01:21 44° W 22:02:34 34° SW
Genesis I 3.0 22:00:58 56° SSW 22:01:42 80° SE 22:05:37 10° NE
BREEZE-M DEB (TANK) 2.9 21:58:07 10° WNW 22:02:18 40° N 22:03:23 26° ENE
Cosmos 2237 Rocket 2.2 21:59:39 24° SSW 22:03:12 89° WNW 22:08:57 10° NNE
Cosmos 2219 Rocket 3.7 21:59:24 10° WSW 22:04:27 34° NW 22:09:32 10° N
SPOT 5 4.4 22:02:26 17° SW 22:05:11 27° W 22:09:20 10° NW
Cosmos 1371 Rocket 4.1 22:01:44 10° NNW 22:07:00 68° ENE 22:08:51 40° SE
USA 215 3.6 22:01:11 10° NE 22:07:41 66° NNW 22:14:07 10° WSW
Spot 4 4.0 22:06:50 42° SE 22:08:15 63° ENE 22:12:58 10° N
Cosmos 2344 3.5 22:05:02 20° SSW 22:10:24 69° ESE 22:18:14 10° NE
Cosmos 158 Rocket 3.8 22:09:32 35° SSW 22:11:36 83° WNW 22:16:32 10° NNE
Cosmos 1151 Rocket 4.2 22:11:08 10° NNE 22:14:59 30° ENE 22:15:44 28° E
Cosmos 2112 Rocket 4.0 22:12:33 33° SSW 22:15:04 84° WNW 22:20:28 10° NNE
Gblst 52 Del rocket 4.5 22:09:19 10° WNW 22:15:04 59° SW 22:17:15 39° SSE
Cosmos 2333 Rocket 4.2 22:14:05 10° WSW 22:18:51 27° NW 22:23:39 10° N
Atlas Centaur 2 4.3 22:15:26 10° SW 22:17:13 15° SW 22:17:13 15° SW
ALOS 2 3.4 22:18:57 35° ESE 22:19:55 40° ENE 22:24:02 10° N
Iridium 2 3.7 22:21:40 10° N 22:25:29 70° W 22:25:48 65° SW
Cosmos 1892 4.1 22:26:26 25° WSW 22:27:39 31° WNW 22:31:05 10° N
EO 1 Del DPAF 3.0 22:25:55 10° NNE 22:29:41 83° WNW 22:29:55 77° SW
Cosmos 2056 Rocket 3.5 22:25:25 10° NNW 22:30:52 89° WSW 22:32:26 48° SSE
GP-B 3.4 22:28:15 10° NNE 22:32:36 50° E 22:33:05 48° ESE
Nimbus 7 Rocket 4.4 22:30:17 10° NNE 22:36:11 65° ESE 22:37:58 44° SSE
Cosmos 1606 2.8 22:33:28 10° N 22:37:20 62° E 22:37:25 62° E
Cosmos 1408 3.6 22:37:57 34° W 22:38:25 36° WNW 22:41:46 10° N
Cosmos 2278 Rocket 3.2 22:33:57 10° NW 22:39:02 35° WSW 22:40:40 29° SW
USA 267 3.2 22:36:39 37° SE 22:39:29 73° SW 22:46:05 10° NW
Cosmos 44 2.8 22:40:50 71° S 22:41:16 82° ESE 22:45:41 10° NE
Cosmos 2297 3.8 22:36:11 10° NNW 22:41:57 74° ENE 22:43:52 43° SE
Gbstr 26 Del rocket 4.1 22:44:20 27° E 22:44:20 27° E 22:46:25 10° ENE
Cosmos 1943 Rocket 3.2 22:37:21 10° NNW 22:42:39 38° NE 22:45:29 23° ESE
MOS 1-B Rocket 4.4 22:35:40 10° NNE 22:43:19 80° WNW 22:46:38 33° SSW
SL-16 R/B 2.1 22:46:34 47° S 22:48:17 79° ESE 22:53:59 10° NNE
Cosmos 371 Rocket 3.5 22:45:28 10° NNW 22:50:19 64° ENE 22:51:21 50° ESE
IRIDIUM 104 4.3 22:49:58 53° SSE 22:51:07 74° E 22:56:21 10° N
CREW DRAGON DEMO-1 DEB 4.3 22:53:16 36° NW 22:53:34 38° NNW 22:56:28 10° NE
APEX 4.4 22:52:07 10° N 22:53:52 27° NNE 22:53:52 27° NNE
Lacrosse 5 rocket 3.6 22:52:10 10° NNW 22:55:23 22° NNE 22:58:27 10° ENE
Terra 4.2 22:54:07 10° WSW 22:55:52 12° W 22:57:37 10° WNW
Cosmos 1452 Rocket 3.8 22:52:35 10° NNW 22:57:48 58° ENE 22:59:20 41° ESE
Cosmos 1515 Rocket 3.9 22:55:25 10° N 22:59:41 51° ENE 23:00:08 49° E
IRIDIUM 114 4.2 22:59:06 55° S 23:00:17 89° E 23:05:33 10° N
Cosmos 1766 Rocket 3.6 23:01:32 58° WSW 23:02:07 66° W 23:06:31 10° N
Cosmos 1328 Rocket 3.3 23:01:30 10° N 23:05:50 81° W 23:06:06 76° SSW
Okean 3 Rocket 4.2 23:07:35 43° WSW 23:08:24 49° WNW 23:12:43 10° N
IRIDIUM 103 4.3 23:08:14 53° SSW 23:09:26 76° W 23:14:41 10° N
Meteor 2-3 Rocket 3.6 23:12:54 52° S 23:14:23 87° E 23:20:08 10° N
Cosmos 1340 2.8 23:15:33 68° NW 23:15:33 68° NW 23:19:08 10° N
Cosmos 1825 4.0 23:14:44 21° W 23:15:27 22° WNW 23:18:29 10° NNW
Cosmos 864 Rocket 4.5 23:16:18 44° SSW 23:18:27 79° W 23:24:46 10° N
Cosmos 2218 Rocket 4.1 23:17:43 41° SSW 23:20:03 71° W 23:26:22 10° N
Cosmos 2228 Rocket 3.7 23:16:16 10° N 23:20:42 47° ENE 23:21:26 43° ESE
NOSS 3-4 (C) 4.5 23:15:01 10° NW 23:21:35 40° WSW 23:23:36 34° SSW
Cosmos 1603 4.2 23:22:36 40° SE 23:23:27 42° ESE 23:28:48 10° NE
Cosmos 2366 rocket 4.1 23:21:57 41° SSW 23:24:16 69° W 23:30:37 10° N
Meteor 1-26 Rocket 4.3 23:20:46 10° NNW 23:26:46 77° W 23:28:23 50° S
Cosmos 1743 Rocket 3.4 23:29:40 72° ESE 23:29:51 74° E 23:34:12 10° NNE
Cosmos 2369 Rocket 2.5 23:25:35 10° NNW 23:31:08 61° ENE 23:33:18 36° SE
Cosmos 44 Rocket 4.1 23:32:07 34° ESE 23:32:07 34° ESE 23:36:05 10° NE
CZ-4 R/B 4.2 23:27:23 10° NNE 23:31:56 47° E 23:32:25 46° ESE
Cosmos 1821 Rocket 4.2 23:30:58 43° SSE 23:32:47 59° E 23:38:45 10° NNE
YAOGAN 11 3.9 23:33:15 75° SSE 23:33:37 89° ENE 23:38:03 10° NNW
Helios 1A 2.9 23:34:08 71° WSW 23:34:10 71° WSW 23:38:19 10° NNW
Cosmos 304 Rocket 3.7 23:29:20 10° NNW 23:34:11 80° ENE 23:35:00 61° SE
Cosmos 1933 4.3 23:31:58 10° NNW 23:35:34 35° W 23:35:34 35° W
COSMOS 2455 2.7 23:33:52 10° NNW 23:39:57 82° WSW 23:41:47 47° SSE
ATLAS 2AS CENTAUR R/B 3.8 23:42:58 10° NW 23:48:53 27° WSW 23:50:03 26° SW
Cosmos 1812 3.6 23:47:29 10° N 23:51:09 40° ENE 23:51:25 39° E
CRYOSAT 2 4.3 23:48:04 10° N 23:52:57 75° E 23:53:46 59° SSE
Cosmos 1782 3.2 23:49:26 10° NNW 23:53:04 53° W 23:53:04 53° W
CZ-2D R/B 4.0 23:51:46 10° NE 23:55:22 18° E 23:57:20 15° ESE
Cosmos 1346 Rocket 3.6 23:55:57 39° W 23:56:07 39° WNW 23:59:49 10° N
ALOS 2 4.3 23:56:20 21° W 23:56:24 21° W 23:59:42 10° NW
